Powrót do katalogu

SAMSAT-ION

AktywnyNaukaSSO
NORAD 57168·PAYLOAD·🇷🇺 Russia
Ta nazwa satelity nie została jeszcze potwierdzona przez oficjalne źródła.

Wystrzelony Jun 27, 2023 z Vostochny Cosmodrome

Loading…

Następne Przeloty (najbliższe 24 godziny)

TLE

ŚwieżeSource: Space-Track

Epoka: Sep 14, 2026, 22:13 UTC

1 57168U 23091C   26257.92610212  .00008378  00000-0  31010-3 0  9991
2 57168  97.4931 320.7007 0011860 144.4042 215.7990 15.27865923177956

Śledź SAMSAT-ION w czasie rzeczywistym z AllMySat

Download on the App Store